• Processing (Info)

  • MPEC 2011-H03 : 2011 GQ65

    The following Minor Planet Electronic Circular may be linked-to from your own Web pages, but must not otherwise be redistributed electronically.

    A form allowing access to any MPEC is at the bottom of this page.


    Read MPEC 2011-H02 Read MPEC 2011-H04


    M.P.E.C. 2011-H03                                Issued 2011 Apr. 16, 03:42 UT
    
         The Minor Planet Electronic Circulars contain information on unusual
             minor planets and routine data on comets.  They are published
       on behalf of Commission 20 of the International Astronomical Union by the
              Minor Planet Center, Smithsonian Astrophysical Observatory,
                              Cambridge, MA 02138, U.S.A.
    
                 Prepared using the Tamkin Foundation Computer Network
    
                                  MPC@CFA.HARVARD.EDU
                URL https://www.minorplanetcenter.net/    ISSN 1523-6714
    
                                       2011 GQ65
    
    Observations:
         K11G65Q* C2011 04 14.42825 17 24 11.59 +35 02 45.8          20.1 VrEH003703
         K11G65Q  C2011 04 14.43346 17 24 11.88 +35 02 40.9          19.2 VrEH003703
         K11G65Q  C2011 04 14.43865 17 24 12.13 +35 02 38.1          19.3 VrEH003703
         K11G65Q  C2011 04 14.44393 17 24 12.20 +35 02 33.4          19.6 VrEH003703
         K11G65Q  C2011 04 14.44944 17 24 12.55 +35 02 29.8          19.4 VrEH003703
         K11G65Q  C2011 04 14.46907 17 24 13.45 +35 02 15.9          19.6 VrEH003703
         K11G65Q |C2011 04 15.33689 17 24 56.55 +34 51 18.8          20.3 VoEH003807
         K11G65Q |C2011 04 15.34963 17 24 57.07 +34 51 08.9          20.6 VoEH003807
         K11G65Q  C2011 04 15.42102 17 25 00.61 +34 49 56.0          19.7  cEH003704
         K11G65Q HC2011 04 15.42226 17 25 00.73 +34 49 56.1          18.7 RuEH003H10
         K11G65Q HC2011 04 15.43169 17 25 01.08 +34 49 49.1          18.7 RuEH003H10
         K11G65Q  C2011 04 15.43289 17 25 01.16 +34 49 46.9          19.5  cEH003704
         K11G65Q HC2011 04 15.44103 17 25 01.39 +34 49 40.8          18.6 RuEH003H10
         K11G65Q  C2011 04 15.44447 17 25 01.63 +34 49 37.9          19.3  cEH003704
         K11G65Q HC2011 04 15.45031 17 25 01.81 +34 49 33.6          18.8 RuEH003H10
         K11G65Q KC2011 04 15.95005 17 25 26.16 +34 42 43.3          19.2 VuEH003J87
         K11G65Q KC2011 04 15.96273 17 25 26.68 +34 42 33.9          19.6 VuEH003J87
         K11G65Q KC2011 04 15.97539 17 25 27.30 +34 42 24.1          19.7 VuEH003J87
         K11G65Q KC2011 04 15.98643 17 25 27.48 +34 42 16.6                uEH003595
         K11G65Q KC2011 04 16.00545 17 25 28.30 +34 42 01.3          19.1 VuEH003595
         K11G65Q KC2011 04 16.05185 17 25 30.38 +34 41 24.6          18.9 VvEH003I93
         K11G65Q KC2011 04 16.06122 17 25 30.69 +34 41 16.6          18.7 VvEH003I93
         K11G65Q KC2011 04 16.06577 17 25 30.94 +34 41 13.3          19.2 VvEH003I93
         K11G65Q KC2011 04 16.07024 17 25 31.14 +34 41 09.7          19.0 VvEH003I93
         K11G65Q KC2011 04 16.07496 17 25 31.28 +34 41 06.2          18.9 VvEH003I93
    
    Observer details:
    595 Farra d'Isonzo.  Observer E. Pettarin.  0.40-m f/4.5 reflector + CCD.
    703 Catalina Sky Survey.  Observer R. E. Hill.  Measurers J. D. Ahern,
        E. C. Beshore, A. Boattini, G. J. Garradd, A. R. Gibbs, P. Tricarico,
        A. D. Grauer, R. E. Hill, R. A. Kowalski, S. M. Larson, R. H. McNaught.
        0.68-m Schmidt + CCD.
    704 Lincoln Laboratory ETS, New Mexico.  Observers M. Blythe, G. Spitz,
        R. Brungard, J. Paige, P. Festler, T. McVey, A. Valdivia.  1.0-m f/2.15
        reflector + CCD.
    807 Cerro Tololo.  Observers R. Holmes, T. Linder, V. Hoette.  Measurer
        T. Linder.  0.41-m f/11 Ritchey-Chretien + CCD.
    H10 Tzec Maun Observatory, Mayhill.  Observer E. Bryssinck.  0.35-m f/3.8
        Maksutov-Newtonian + CCD.
    I93 St Pardon de Conques.  Observer F. Losse.  0.40-m f/5.0 reflector + CCD.
    J87 La Canada.  Observer J. Lacruz.  0.40-m Ritchey-Chretien + CCD.
    
    Orbital elements:
    2011 GQ65                                                Earth MOID = 0.3922 AU
    Epoch 2011 Feb. 8.0 TT = JDT 2455600.5                  MPC
    M 343.03335              (2000.0)            P               Q
    n   0.29359332     Peri.  114.77176     -0.82812639     +0.39735060
    a   2.2420155      Node    90.79067     -0.53776365     -0.76220416
    e   0.4395418      Incl.   23.29154     +0.15816743     -0.51103553
    P   3.36           H   18.5           G   0.15           U   8
    Residuals in seconds of arc
    110414 703  0.3-  0.2+    110415 H10  0.4+  0.3+    110415 595  0.2-  0.3+
    110414 703  0.4+  0.8-    110415 H10  0.0   0.6+    110416 595  0.3+  0.2-
    110414 703  0.7+  0.3+    110415 704  0.2+  0.3-    110416 I93  0.2+  0.4+
    110414 703  1.3-  0.5-    110415 H10  0.8-  0.3-    110416 I93  0.6-  0.2-
    110414 703  0.1+  0.0     110415 704  0.2+  0.2-    110416 I93  0.3+  0.1+
    110414 703  0.6+  0.9+    110415 H10  0.2-  0.2-    110416 I93  0.5+  0.0
    110415 807  0.1+  0.0     110415 J87  0.0   0.3-    110416 I93  0.1-  0.3+
    110415 807  0.2+  0.1+    110415 J87  0.5-  0.0
    110415 704  0.7-  0.5-    110415 J87  0.4+  0.1-
    
    Ephemeris:
    2011 GQ65                a,e,i = 2.24, 0.44, 23                  q = 1.2566
    Date    TT    R. A. (2000) Decl.     Delta      r     Elong.  Phase     V
    2011 03 17    16 35 50.6 +37 46 02   0.5840  1.2741   104.6    49.1    19.7
    ...
    2011 04 01    17 07 13.3 +37 03 10   0.5426  1.2579   105.5    49.9    19.5
    ...
    2011 04 09    17 18 38.8 +36 02 36   0.5188  1.2568   107.2    49.6    19.4
    ...
    2011 04 15    17 24 40.0 +34 55 27   0.5001  1.2593   109.2    48.8    19.3
    2011 04 16    17 25 27.3 +34 42 12   0.4969  1.2600   109.6    48.6    19.3
    2011 04 17    17 26 11.0 +34 28 18   0.4938  1.2608   110.0    48.4    19.3
    ...
    2011 04 23    17 29 14.8 +32 50 34   0.4745  1.2673   112.8    47.0    19.2
    ...
    2011 05 01    17 29 48.4 +29 55 23   0.4490  1.2803   117.9    44.1    19.0
    ...
    2011 05 16    17 20 43.7 +21 24 18   0.4091  1.3172   131.3    35.2    18.6
    
    Carl W. Hergenrother         (C) Copyright 2011 MPC           M.P.E.C. 2011-H03
    

    Read MPEC 2011-H02 Read MPEC 2011-H04


    MPEC number:

    Enter an MPEC number in one of the following forms:

    • 1997-B01 (the full form)
    • J97B01 (the packed version of the full form)
    • B01 (the abbreviated form)